CAPE
1269 1524 1611 1883 1807 1774 1892 2067 2043 1941 1862 1945 1432 1464 1769 1704 1743 1977 1955 1741 1822 1962 1579 1261 1182 627 864 859 402 88 0 209 561 184 251 740 844 812 918 1024 951 987 803 878 834 735 697 711 616 678 733 958 1172 702 863 775 824 813 642 764 842 796 728 660 630 660 625 566 485 517 373 249 160 128 56 8 4 3 5 8 10 9 11 11 12
1328 1363 1485 1664 1854 1718 1792 1918 1965 1889 1762 1668 1458 1085 1188 1520 1485 1383 1668 1632 1391 1452 1400 1221 789 824 1033 646 469 0 0 59 558 77 220 738 732 992 959 1052 987 1076 1000 925 922 777 740 792 769 830 1074 1097 876 883 846 830 831 843 711 802 824 678 629 610 604 643 588 585 498 474 299 230 172 112 24 4 3 2 3 6 8 9 10 12 9
1383 1259 1505 1500 1792 1960 1877 1834 1896 1808 1615 1467 1458 1155 943 1140 1145 1130 993 975 1166 1328 1089 1026 857 757 617 1013 516 0 0 0 87 13 135 392 648 747 944 1044 983 1010 1311 1110 934 959 804 793 810 700 851 642 761 709 639 684 812 802 786 799 786 725 561 561 601 611 568 579 441 353 303 211 158 86 8 2 1 2 5 12 9 8 7 8 6
1819 1474 1077 1389 1416 1670 1680 1739 1776 1704 1522 1418 1320 1195 1021 1342 1003 848 1054 1218 1382 1179 708 612 488 403 879 758 469 105 0 0 0 47 424 237 686 705 818 968 1004 1002 1093 1256 1022 926 868 914 819 803 686 730 696 751 768 692 719 810 801 815 748 696 526 482 528 577 472 540 433 238 329 192 144 70 3 2 4 2 3 10 11 6 8 8 6
1812 1738 891 862 1372 1282 1232 1499 1447 1562 1533 1400 1210 1023 958 930 889 762 1138 1224 1264 978 643 602 537 436 623 591 435 411 9 0 4 102 586 622 681 756 790 800 830 991 1026 1214 1156 884 758 805 892 844 817 656 662 1014 841 704 706 725 603 760 732 670 569 447 490 489 466 434 378 212 268 172 131 68 3 4 6 4 2 6 12 8 6 7 7
1638 1730 1550 834 903 1244 1103 1077 1296 1522 1488 1318 1115 967 835 726 1040 1037 1186 962 980 708 534 560 620 454 446 498 453 404 116 0 11 556 596 639 658 670 714 741 740 787 825 1129 1266 1146 820 872 841 858 784 787 749 696 743 565 542 477 581 637 731 641 591 546 611 553 432 344 287 260 243 126 114 69 7 5 9 5 1 5 11 8 5 6 6
1222 1572 1652 1330 1086 860 1124 954 980 1225 1415 1277 1127 983 807 662 606 558 711 681 704 866 610 421 530 490 433 504 459 296 255 0 0 140 547 566 622 625 364 131 661 631 641 928 1382 1251 1159 1138 668 889 872 723 841 571 748 722 662 524 386 547 513 439 501 546 526 401 382 315 231 197 154 133 77 57 13 6 3 1 0 1 7 8 4 2 7
836 954 1093 1318 1277 1115 840 711 614 846 1170 1279 1186 1084 930 759 581 457 586 562 541 579 583 509 585 293 340 429 455 562 383 222 0 4 24 221 500 529 34 18 12 106 734 638 713 950 1106 1144 1038 858 742 728 775 710 672 772 684 586 454 445 471 555 546 534 596 573 469 381 290 198 151 133 74 55 15 6 3 0 0 0 1 2 1 1 4
846 709 802 1100 1320 1270 928 752 626 736 942 1043 1101 995 891 764 565 762 511 561 578 543 488 425 599 566 433 450 652 976 348 388 271 12 44 58 69 59 35 16 38 890 187 76 616 666 978 1258 1152 941 832 764 814 738 762 762 734 553 432 395 350 290 495 569 607 598 484 440 391 316 90 138 82 49 30 12 6 2 0 0 1 3 2 0 0
724 794 696 833 1072 1321 1414 1043 631 733 732 799 858 780 676 635 574 514 675 627 790 683 493 469 472 423 320 511 658 831 381 482 402 328 131 81 46 81 50 14 70 161 0 0 498 97 386 1064 1188 950 965 809 834 737 666 486 620 678 406 271 247 254 299 434 530 515 438 428 447 339 198 81 81 59 44 28 7 6 6 1 3 4 4 1 0
658 717 758 796 991 1132 1310 1344 1023 703 690 726 788 891 679 598 544 427 555 618 713 600 440 441 383 379 335 491 831 696 484 542 491 396 290 195 60 149 69 11 9 3 0 0 0 0 45 502 793 818 788 867 892 735 583 557 533 590 499 273 150 44 74 188 422 424 341 366 418 360 281 118 48 74 52 31 18 13 11 1 1 3 4 2 0
519 546 621 665 806 987 1187 1270 1178 815 670 670 671 714 903 923 712 524 557 617 600 547 548 452 407 416 432 478 477 653 652 672 340 288 372 434 377 205 67 5 0 0 0 0 0 0 0 0 150 600 633 824 1037 902 778 625 592 414 525 359 178 90 39 84 171 291 252 228 294 369 281 174 58 14 23 36 26 19 15 6 2 1 2 1 0
394 477 543 619 696 793 877 1120 1148 940 679 636 666 638 579 755 775 637 656 639 690 580 691 708 632 410 460 361 340 654 974 645 562 398 468 528 589 622 562 168 0 0 0 0 0 0 0 0 0 0 12 514 879 958 882 862 825 659 561 457 242 135 36 62 94 137 153 136 262 372 302 264 103 41 31 30 30 24 22 18 6 2 2 2 0
274 504 496 480 532 745 931 1120 679 544 617 528 551 633 605 640 602 626 633 491 652 563 722 815 576 334 406 401 464 456 742 731 690 526 483 665 648 654 625 710 382 0 0 0 0 0 0 0 0 0 0 21 501 563 754 739 780 826 575 505 289 207 59 43 82 81 94 93 147 314 325 214 159 26 19 16 36 28 24 28 17 2 2 1 1
208 364 484 440 512 573 676 713 792 622 675 528 453 462 549 637 586 606 718 704 827 594 676 758 376 324 400 608 562 444 426 636 718 715 634 711 778 752 612 661 715 590 1 596 583 622 420 0 0 0 0 19 328 382 540 515 582 661 762 622 433 262 162 64 66 72 74 84 121 251 341 229 123 121 22 18 16 31 28 28 28 12 4 4 2
162 140 443 518 521 562 585 554 591 713 696 691 434 367 356 488 498 511 656 728 916 772 735 761 404 372 514 677 651 596 522 630 694 685 718 850 920 786 703 824 770 654 559 613 607 614 622 536 0 0 0 73 195 278 375 462 460 598 790 759 661 469 150 85 86 100 52 60 137 238 249 318 268 185 104 32 24 24 26 22 25 25 12 3 2
168 95 264 416 448 475 528 589 639 747 562 572 562 316 255 317 375 444 614 663 628 773 755 664 506 364 391 388 614 474 643 765 616 803 658 544 677 828 774 838 798 675 635 680 604 590 627 653 242 0 0 21 195 187 226 299 298 405 505 722 661 394 263 129 46 76 52 52 48 162 335 336 310 293 157 88 32 27 24 18 28 29 20 16 11
172 88 193 438 448 430 448 520 625 656 572 456 580 446 141 310 298 306 395 605 618 720 595 544 595 348 320 397 336 472 551 810 603 548 603 660 581 620 728 773 815 836 726 762 743 668 646 686 670 552 267 0 305 253 281 0 80 250 273 296 653 475 378 232 108 45 41 45 29 75 203 397 349 282 291 202 83 44 20 17 20 24 25 20 12
174 154 206 449 526 518 451 436 474 652 651 636 535 418 226 302 356 302 355 440 504 572 493 384 427 343 538 761 839 1373 968 852 810 733 672 660 925 700 671 778 908 894 885 841 806 796 711 729 783 690 606 316 414 404 392 288 0 11 176 198 472 550 482 351 235 92 62 24 24 20 36 168 350 352 351 302 160 46 31 27 23 26 28 24 8
206 243 324 315 572 518 561 469 485 576 603 650 687 364 319 375 454 389 367 382 478 578 445 498 680 437 555 1161 1434 1402 1335 949 1021 750 596 670 732 807 701 744 674 604 817 989 895 885 808 784 845 798 694 617 555 508 509 426 0 0 55 366 406 650 552 435 377 178 92 48 23 19 17 27 250 361 445 357 200 100 67 30 38 31 31 28 14
213 344 409 421 436 460 409 552 567 501 642 720 751 552 458 474 468 448 440 372 432 603 573 684 626 691 859 1102 1449 1441 1176 1180 987 660 255 347 433 721 869 748 656 658 759 853 1020 1028 995 922 903 896 816 720 698 684 632 514 0 0 1 189 431 506 583 442 362 352 140 44 21 21 20 20 22 198 478 502 258 146 135 65 56 38 32 26 23
290 384 432 370 415 403 388 464 562 496 435 481 554 659 540 516 434 421 494 561 596 455 562 670 817 901 960 1016 1223 1574 1138 1090 1143 790 763 208 31 375 740 765 613 575 628 799 901 1034 1088 1101 1028 1010 963 863 835 815 732 520 0 0 0 7 245 347 415 554 369 310 315 77 22 22 22 20 20 17 198 399 490 289 184 158 123 77 59 37 27
310 483 446 330 343 298 272 306 220 554 374 356 457 371 533 549 549 463 413 444 538 549 433 561 808 1120 1042 900 982 1228 1241 1133 1178 1062 869 506 235 224 443 633 550 573 729 830 928 963 1036 1162 1199 1132 1071 998 927 905 806 270 0 0 0 0 18 200 324 448 464 270 254 175 44 28 23 19 17 21 14 192 387 457 279 196 204 116 58 38 29
291 393 376 355 306 254 250 248 284 323 464 459 346 353 552 718 495 509 567 552 575 716 820 936 981 1047 1021 830 916 1062 1166 1057 1062 1033 984 605 216 151 357 598 566 471 907 882 1048 1045 1045 1161 1217 1245 1193 1048 1006 960 872 787 648 190 0 0 0 12 163 413 495 420 248 123 65 55 20 17 16 14 17 20 136 420 358 227 217 136 67 48 32
257 262 358 319 255 221 124 97 227 193 279 326 418 514 390 492 475 416 452 521 571 624 746 813 720 645 659 809 915 968 1010 1060 1110 1040 876 775 435 48 527 904 849 772 994 1267 987 972 1210 1198 1182 1278 1282 1152 1101 1046 988 912 826 613 483 377 0 0 20 196 359 408 284 27 54 22 38 15 11 18 20 11 18 102 363 322 218 185 116 88 47
262 290 311 289 252 204 206 54 202 168 247 425 570 478 421 468 525 592 513 475 475 502 657 752 616 449 523 814 996 1083 1021 986 1099 1185 1107 806 513 301 447 905 940 892 1462 1748 1761 1455 1208 1048 1055 1210 1376 1355 1252 1182 1143 1073 967 810 659 570 459 174 0 26 170 284 321 221 70 42 41 16 12 12 12 12 19 21 57 282 256 176 104 72 46
148 101 256 244 235 207 29 236 272 172 336 259 479 610 523 440 689 608 487 389 390 372 336 318 343 404 498 671 897 1007 1091 1040 1002 1098 1295 1061 668 443 337 524 874 1120 1262 1526 1756 1684 1600 1448 1155 1103 1176 1357 1375 1319 1272 1230 1127 957 800 709 678 510 4 0 1 81 264 253 215 142 63 55 114 83 24 8 6 6 9 62 289 222 123 87 93
22 148 246 254 211 199 168 145 223 250 218 229 359 465 602 711 676 562 522 438 340 347 280 255 314 408 490 563 653 756 870 1011 980 982 1147 1211 970 914 722 446 248 211 694 1042 1128 1190 1231 1364 1444 1425 1332 1236 1296 1340 1343 1304 1253 1170 915 837 808 704 312 0 0 0 94 246 297 276 203 167 178 116 8 6 5 3 1 12 177 331 221 149 131
2 152 202 221 191 160 0 73 145 225 248 286 293 482 595 619 527 456 419 359 368 312 348 415 400 482 501 519 552 602 676 798 929 1001 1083 1105 767 715 681 484 337 150 61 387 555 586 446 907 1057 1092 1407 1418 1286 1281 1336 1374 1389 1358 1197 941 903 868 701 554 87 24 0 12 130 420 405 223 224 245 74 27 8 3 1 4 30 244 324 212 216
1 1 154 214 190 125 2 7 6 165 212 101 399 437 444 438 384 468 484 481 516 477 451 477 498 550 575 594 611 640 655 717 857 958 981 965 800 722 600 450 324 150 9 107 283 357 296 604 810 823 1034 1390 1411 1408 1379 1417 1420 1435 1387 1211 1043 930 878 791 695 576 298 0 0 19 128 279 281 268 238 80 14 4 0 0 15 25 184 264 227
3 0 0 0 88 101 1 0 31 2 123 153 327 384 341 329 418 521 506 443 442 483 472 593 631 602 573 569 578 596 647 704 809 902 876 724 697 716 594 305 316 272 264 164 154 202 221 277 368 672 999 1097 1294 1391 1425 1416 1423 1422 1408 1334 1228 1125 997 901 828 726 592 470 92 0 0 0 66 192 181 93 11 3 1 2 8 13 21 72 154
10 7 0 0 0 0 2 5 0 0 0 14 187 273 277 178 187 257 391 480 532 523 562 571 539 512 438 432 562 678 755 743 593 532 466 240 249 291 275 58 0 209 269 10 6 0 27 127 178 422 497 528 894 1240 1344 1381 1381 1345 1350 1310 1227 1192 1144 1020 916 804 700 605 469 302 0 0 0 10 66 88 60 24 9 10 18 8 0 0 0
19 12 8 2 0 0 0 0 0 0 0 64 101 150 183 269 144 109 310 276 284 187 305 327 404 370 355 397 414 450 438 373 345 287 230 226 187 182 153 85 0 0 11 27 96 163 242 204 133 253 438 473 418 587 986 1133 1202 1276 1295 1298 1279 1249 1204 1116 1004 914 806 704 601 462 184 0 0 0 1 28 58 14 10 4 0 0 2 1 0
17 18 16 11 4 0 0 0 0 0 0 3 33 1 1 134 228 280 178 358 478 337 353 320 435 408 336 340 324 327 337 328 351 384 402 376 331 170 327 406 246 85 202 228 182 252 398 392 264 316 392 450 495 384 512 692 977 1132 1182 1219 1253 1244 1200 1150 1070 1009 964 824 705 582 443 66 0 0 0 0 0 0 0 0 0 0 0 0 2
6 8 15 19 10 5 0 0 0 0 0 0 0 12 32 4 83 134 139 287 275 344 345 331 311 226 262 295 330 328 286 265 230 260 305 370 382 307 353 365 391 336 393 296 337 683 726 629 621 577 486 441 444 468 457 416 597 911 1049 1122 1155 1146 1122 1105 1098 1083 1058 1007 877 744 605 435 347 204 0 0 0 0 0 0 0 0 0 0 0
3 6 10 11 13 13 7 1 0 0 0 0 0 0 1 1 0 54 68 104 150 171 233 219 165 157 194 229 233 284 244 218 202 231 241 338 399 348 410 472 422 426 469 518 501 497 477 444 380 345 358 357 359 439 439 399 318 462 826 1055 1060 1045 1054 1056 1050 1093 1123 1144 1100 959 797 652 617 600 496 257 0 0 0 0 0 0 0 0 0
5 1 1 4 12 13 9 5 1 0 0 0 0 0 4 10 5 5 26 69 50 45 121 212 243 70 106 134 146 140 96 89 149 222 243 270 325 342 390 356 346 350 354 392 305 292 302 314 304 287 307 365 360 209 133 408 396 390 684 850 979 1060 1062 1072 1055 1078 1138 1204 1205 1134 988 847 769 773 679 521 393 214 0 0 0 0 0 0 0
0 0 0 0 5 10 8 6 7 2 0 0 0 0 0 2 11 7 2 5 36 43 55 127 209 149 144 141 141 142 112 85 139 236 306 328 330 484 553 596 551 464 403 347 303 307 332 368 370 392 383 364 331 280 246 210 203 308 260 218 457 780 960 1133 1185 1198 1251 1312 1280 1206 1102 956 878 939 917 798 703 684 603 522 458 399 341 137 56
3 0 0 0 0 2 6 6 8 10 7 0 0 0 0 2 8 6 6 2 16 47 78 57 145 231 181 146 141 155 144 122 102 118 179 184 164 134 260 337 362 339 306 301 307 324 331 338 320 286 253 236 181 2 0 37 106 146 190 217 198 316 730 881 1050 1127 1178 1207 1199 1164 1132 1097 1085 1114 1130 1117 1040 958 884 793 717 642 567 508 419
0 0 1 1 0 0 0 0 5 10 13 10 4 0 0 0 0 5 2 0 10 25 43 63 81 159 176 152 122 117 129 146 127 158 128 117 119 114 95 109 124 196 267 272 298 373 396 389 380 364 347 423 517 474 391 288 224 203 198 0 127 4 1 467 775 944 1036 1056 1119 1150 1196 1200 1207 1199 1171 1246 1238 1130 1017 913 814 738 724 702 696
7 4 14 12 8 2 1 4 1 6 5 5 9 4 0 0 0 4 5 1 0 0 11 34 76 107 162 173 120 102 114 294 211 142 120 106 138 188 147 113 124 164 228 346 473 448 440 444 455 449 456 514 543 526 412 321 282 291 247 255 282 275 78 243 495 507 436 542 676 793 877 927 985 1044 1073 1096 1184 1234 1185 1042 940 895 858 823 785
7 10 8 8 20 12 11 5 2 1 3 4 2 0 2 0 0 0 6 7 2 0 0 6 19 46 64 95 82 222 315 712 324 114 140 179 214 211 215 183 184 216 373 410 367 431 461 485 482 472 451 421 401 362 343 356 397 401 369 350 306 252 311 438 434 540 539 557 558 540 572 574 641 803 923 988 1010 1028 1098 1106 1054 983 954 932 928
13 9 6 10 8 10 7 5 1 3 13 16 6 1 0 0 0 0 0 0 2 1 0 0 0 0 29 55 57 76 110 344 389 114 154 140 170 253 288 266 367 518 446 202 192 268 284 332 423 451 420 418 447 474 492 499 480 499 474 428 418 368 188 273 364 380 365 402 462 506 620 603 552 578 694 812 883 836 780 729 686 691 759 901 1008
20 10 7 4 8 11 2 4 6 10 9 10 13 8 3 5 5 1 0 0 0 0 2 1 0 0 0 14 23 34 61 84 132 112 101 111 118 160 207 154 129 167 325 265 188 103 161 211 229 281 326 350 355 388 414 458 507 455 464 377 341 344 306 313 337 345 351 272 304 378 446 412 419 490 520 455 405 370 398 440 464 436 493 666 917
16 15 3 1 1 7 7 4 10 12 14 12 7 7 8 4 2 2 0 0 0 0 5 4 2 0 0 0 8 9 42 41 60 74 50 70 105 133 108 31 31 34 50 74 90 58 34 4 21 10 32 83 77 88 0 0 130 301 378 378 317 270 243 0 0 9 236 302 258 247 2 179 60 275 300 315 350 366 371 338 307 323 374 438 510
13 14 11 1 0 0 3 4 5 2 0 0 0 0 0 0 0 0 0 0 0 0 1 2 5 8 0 1 2 17 51 75 68 51 41 56 89 72 10 13 22 17 26 47 45 0 0 0 0 0 0 0 0 0 0 0 0 1 3 45 127 132 108 32 0 57 171 139 164 144 29 12 0 0 0 38 44 221 287 323 349 411 474 489 481
12 8 7 1 0 0 0 0 0 1 0 0 0 0 0 0 0 0 0 0 0 0 0 1 10 9 1 3 4 3 7 35 59 47 56 48 58 54 56 50 60 57 30 0 0 0 0 0 0 0 0 0 0 0 0 0 0 0 0 1 27 75 93 113 16 73 0 0 58 80 41 9 0 11 9 25 40 42 275 336 390 423 439 438 432
15 6 3 0 0 0 0 0 0 0 0 0 0 0 0 0 0 0 0 1 0 9 11 7 7 8 2 2 5 0 0 12 17 47 19 53 30 47 43 49 32 13 5 0 0 0 0 0 0 0 0 0 0 0 0 0 0 0 0 0 14 91 76 34 0 0 0 0 0 16 30 10 3 16 21 84 217 244 275 284 338 410 449 470 461
15 7 4 0 0 0 0 0 0 0 0 0 0 0 0 0 0 4 9 12 13 14 12 7 6 8 7 10 13 16 7 12 28 37 39 38 29 27 32 65 42 33 15 8 1 0 0 0 0 0 0 0 0 0 0 0 0 0 0 0 0 0 0 0 0 0 0 0 0 56 82 73 105 106 93 0 1 0 1 102 303 178 157 152 155
8 10 3 3 0 0 0 0 0 0 0 0 0 0 0 0 0 4 13 15 18 14 12 9 7 0 0 3 7 10 15 16 18 25 25 31 32 34 42 35 20 9 8 6 0 0 0 0 0 0 0 0 0 0 0 0 0 0 0 0 0 0 0 0 1 2 3 0 0 19 150 189 128 6 0 0 0 0 0 32 0 0 0 0 0
6 12 7 3 0 0 0 0 0 0 0 0 0 0 0 1 1 3 4 6 6 5 5 3 2 5 2 1 2 1 1 0 0 0 0 0 0 0 0 0 0 0 0 0 0 0 0 0 0 0 0 0 0 1 2 3 2 3 3 0 0 0 0 0 0 0 1 0 0 11 2 0 0 0 0 2 0 0 0 0 0 0 0 0 0
Wind_Speed
23 24 22 21 21 20 18 17 17 16 18 18 19 17 15 16 16 16 14 11 10 11 11 13 13 13 14 12 13 nan nan 8 5 6 9 12 11 5 2 4 7 8 9 9 9 10 10 10 8 6 7 7 8 8 7 8 8 9 10 10 11 10 11 11 11 12 12 12 14 15 15 15 15 15 nan nan nan nan nan nan nan nan nan nan nan
19 21 22 21 22 21 20 19 17 17 18 18 18 18 16 17 18 17 14 11 17 16 12 12 13 15 16 13 13 nan nan nan 5 nan 10 13 12 9 3 5 8 8 8 10 10 11 10 10 8 10 9 7 7 7 7 7 8 9 10 10 10 10 11 11 11 12 12 12 13 13 14 14 14 15 nan nan nan nan nan nan nan nan nan nan nan
17 18 21 24 26 23 20 20 18 18 19 18 19 18 18 18 18 19 18 18 20 12 6 10 14 16 15 12 12 nan nan nan nan nan 10 12 12 10 5 6 8 9 8 10 11 11 11 10 9 9 8 8 5 6 7 7 7 8 9 9 10 10 11 10 11 11 11 12 12 12 12 12 13 nan nan nan nan nan nan nan nan nan nan nan nan
20 21 22 25 24 25 25 22 19 19 19 19 20 20 20 22 22 23 24 22 20 15 10 12 14 14 14 12 12 11 nan nan nan nan 9 10 11 10 7 5 7 7 9 10 11 13 12 11 9 9 8 9 7 6 7 7 6 7 8 9 9 10 10 10 10 11 11 11 11 11 11 11 11 nan nan nan nan nan nan nan nan nan nan nan nan
22 22 23 23 21 22 22 23 23 23 22 22 23 23 24 24 24 24 25 24 23 18 11 15 15 14 15 13 12 10 nan nan nan 7 8 8 8 9 8 6 6 6 8 9 11 13 12 11 10 9 9 8 8 6 6 6 5 7 8 8 9 9 10 10 10 10 11 11 11 11 10 10 10 nan nan nan nan nan nan nan nan nan nan nan nan
19 22 24 23 22 23 22 21 22 24 24 24 25 24 24 24 23 23 23 24 23 19 16 18 17 14 15 14 15 13 10 nan nan 7 9 7 6 8 7 6 5 5 5 8 9 11 13 11 10 9 9 9 8 7 6 6 6 7 8 8 9 10 10 9 9 10 11 11 10 11 10 10 10 nan nan nan nan nan nan nan nan nan nan nan nan
20 23 23 23 23 24 23 21 25 26 25 25 26 25 24 23 23 24 23 24 23 21 19 17 16 15 15 16 15 13 10 nan nan 8 9 7 6 7 7 6 6 5 5 4 6 9 10 9 9 8 8 8 6 7 6 6 6 7 9 9 10 10 10 10 10 10 10 10 10 11 12 11 nan nan nan nan nan nan nan nan nan nan nan nan nan
24 25 22 22 22 22 23 25 27 25 25 26 27 26 25 24 26 24 24 23 24 24 22 18 18 16 15 17 15 13 11 9 nan nan nan 8 7 7 nan nan nan 5 4 3 4 5 8 8 7 8 7 6 7 8 7 6 6 7 8 10 10 9 9 9 8 8 10 10 11 11 12 12 nan nan nan nan nan nan nan nan nan nan nan nan nan
23 23 23 21 23 24 24 26 27 26 26 27 28 26 27 28 27 27 25 21 23 24 23 19 18 17 16 18 16 14 13 10 10 nan nan nan nan nan nan nan nan 4 5 nan 3 5 5 5 5 6 5 6 7 7 6 6 7 7 8 9 10 10 9 7 7 8 9 10 11 12 nan 12 nan nan nan nan nan nan nan nan nan nan nan nan nan
22 23 24 24 23 23 26 27 27 25 26 28 27 26 29 29 27 28 28 25 24 25 22 18 18 18 18 19 18 17 16 15 12 12 11 nan nan nan nan nan nan 5 nan nan 2 nan 4 3 3 5 5 6 6 7 6 8 7 7 7 8 9 11 10 8 7 7 9 10 11 12 12 nan nan nan nan nan nan nan nan nan nan nan nan nan nan
22 23 23 23 21 23 25 27 27 25 25 28 27 27 28 29 28 29 31 28 28 28 23 20 21 21 19 20 18 16 17 14 14 13 11 8 nan 8 nan nan nan nan nan nan nan nan nan 4 3 4 5 6 5 7 7 6 7 5 6 7 9 nan nan 11 8 8 9 9 10 11 12 12 nan nan nan nan nan nan nan nan nan nan nan nan nan
23 25 26 25 24 23 25 27 27 27 26 27 27 27 27 29 30 30 29 28 30 30 25 24 25 25 22 22 19 18 16 14 15 15 14 10 8 9 nan nan nan nan nan nan nan nan nan nan 4 2 6 6 5 4 6 7 5 5 6 6 7 nan nan nan 11 11 11 11 10 10 12 12 nan nan nan nan nan nan nan nan nan nan nan nan nan
23 24 24 24 23 23 25 31 30 28 27 27 27 26 26 26 28 28 27 27 29 29 26 24 23 24 24 22 21 19 16 15 15 15 16 15 12 8 9 7 nan nan nan nan nan nan nan nan nan nan nan 8 7 5 5 6 5 5 7 7 7 8 nan nan nan 12 13 13 11 11 12 12 13 nan nan nan nan nan nan nan nan nan nan nan nan
22 23 24 24 23 22 26 27 26 24 24 29 30 29 27 26 27 30 29 26 29 25 22 23 23 21 21 22 23 21 21 19 16 15 17 17 15 9 10 8 6 nan nan nan nan nan nan nan nan nan nan nan 8 9 8 7 7 5 6 7 8 9 nan nan nan nan nan nan 13 13 12 14 14 nan nan nan nan nan nan nan nan nan nan nan nan
21 21 22 22 22 23 25 27 26 25 27 28 30 30 27 25 25 28 29 30 29 24 22 23 24 22 21 23 22 20 20 20 19 17 17 16 15 12 12 8 6 5 nan 5 3 2 2 nan nan nan nan nan 8 9 9 8 8 6 4 8 8 8 8 nan nan nan nan nan 13 14 14 15 15 15 nan nan nan nan nan nan nan nan nan nan nan
19 20 20 21 22 23 25 26 25 29 28 27 30 30 30 28 27 28 29 28 26 22 22 23 23 23 22 23 23 20 20 17 18 17 17 16 14 12 14 8 4 4 5 4 4 2 2 2 nan nan nan nan 7 8 9 10 5 5 5 6 8 6 8 nan nan nan nan nan 12 13 15 15 16 17 17 nan nan nan nan nan nan nan nan nan nan
18 nan 19 19 21 23 26 25 28 29 27 27 29 30 30 29 27 29 28 29 27 26 22 23 21 22 24 25 25 20 18 20 19 16 15 11 11 12 13 9 7 4 4 4 5 4 3 3 2 nan nan nan 7 7 8 9 7 8 6 5 5 5 7 8 nan nan nan nan nan 12 14 15 15 16 17 nan nan nan nan nan nan nan nan nan nan
18 nan 17 18 20 22 25 27 28 28 28 26 28 32 33 32 28 29 30 29 29 26 25 23 22 22 23 25 22 18 16 17 19 15 15 15 14 12 11 10 9 7 7 6 5 5 4 3 3 2 3 nan 5 6 6 nan nan 8 8 6 4 4 6 8 9 nan nan nan nan nan 13 14 14 15 16 16 nan nan nan nan nan nan nan nan nan
18 17 16 16 18 20 23 25 26 28 29 30 31 30 31 31 33 32 31 33 32 27 24 22 25 21 21 23 18 13 17 19 14 19 14 15 15 13 11 10 11 10 8 7 6 6 5 5 4 3 3 4 5 6 6 6 nan nan 2 2 4 4 6 9 9 nan nan nan nan nan nan 12 13 14 15 15 16 nan nan nan nan nan nan nan nan
20 20 17 16 17 19 22 23 25 26 28 30 30 31 32 33 33 33 34 34 31 28 24 25 21 20 21 23 17 17 17 20 17 13 15 13 15 18 18 15 13 12 10 9 8 7 6 6 6 5 5 4 4 5 5 5 nan nan nan 1 3 4 8 9 10 10 nan nan nan nan nan nan 12 13 15 15 16 16 nan nan nan nan nan nan nan
23 20 18 17 17 21 23 22 23 25 27 29 30 30 30 32 34 35 35 35 32 29 28 23 23 24 26 23 20 23 22 20 18 19 18 16 18 15 15 18 17 14 11 10 11 10 8 7 8 7 6 5 5 4 5 6 nan nan nan 2 2 4 6 9 9 10 10 nan nan nan nan nan nan 12 14 16 16 17 15 nan nan nan nan nan nan
22 23 22 19 18 21 23 23 22 26 29 34 36 34 32 32 33 34 35 35 34 31 27 25 23 26 25 25 24 25 25 23 20 19 20 18 nan 14 14 13 12 14 13 11 10 11 11 10 10 9 8 7 6 5 5 5 nan nan nan nan 3 4 5 7 10 10 10 nan nan nan nan nan nan nan 13 15 16 18 18 17 16 nan nan nan nan
21 22 24 24 22 21 24 24 25 28 31 34 32 34 32 31 34 35 35 36 36 34 33 29 27 27 27 26 23 23 22 21 18 18 19 18 19 18 18 14 12 17 14 11 12 12 12 12 10 10 9 9 8 7 7 6 nan nan nan nan nan 3 5 7 9 10 10 11 nan nan nan nan nan nan nan 14 16 16 18 17 15 16 nan nan nan
23 24 26 25 23 23 25 29 30 29 32 31 33 32 31 32 34 34 36 37 38 37 35 32 30 28 26 26 25 27 27 24 21 19 18 18 16 16 17 19 20 17 19 15 15 14 12 11 11 11 10 10 10 10 9 7 6 2 nan nan nan nan 5 6 8 9 10 10 nan nan nan nan nan nan nan nan 14 16 16 16 15 15 nan nan nan
24 26 25 25 24 23 25 nan 29 31 29 30 29 31 33 33 32 33 36 37 36 35 34 31 31 30 26 25 28 28 24 24 25 23 22 21 20 nan 19 21 21 19 18 20 17 15 13 13 13 12 12 11 12 12 11 10 10 5 4 4 nan nan nan 6 7 8 9 nan nan nan nan nan nan nan nan nan nan 12 12 15 16 16 16 nan nan
24 24 24 24 23 22 24 nan 27 30 29 31 31 32 35 38 36 36 36 36 38 37 35 34 32 30 30 28 28 28 28 26 26 26 24 23 22 21 20 22 23 21 21 20 21 20 18 14 13 13 13 13 13 13 13 11 12 9 7 9 4 4 nan nan 6 7 8 9 nan nan nan nan nan nan nan nan nan nan nan 13 16 19 18 nan nan
23 22 24 25 23 23 nan 26 25 25 29 34 34 33 36 31 32 32 36 37 38 39 38 36 32 31 31 28 28 31 30 28 27 27 28 25 24 23 22 22 23 23 22 22 21 19 17 18 14 14 13 13 13 14 14 15 12 11 10 10 12 5 nan nan nan nan 7 8 9 10 nan nan 12 nan nan nan nan nan nan nan 16 18 19 nan nan
nan 24 24 24 25 24 25 25 26 27 31 36 36 34 33 31 32 35 33 35 37 38 38 38 34 32 32 32 32 30 31 31 31 31 29 28 28 26 25 24 22 21 23 22 23 21 19 17 19 14 13 13 13 14 15 14 15 12 13 14 14 12 7 nan nan nan nan 8 9 10 10 9 9 10 nan nan nan nan nan nan 14 18 21 21 19
nan 23 24 24 24 25 nan nan 24 27 31 34 36 35 33 33 33 33 31 33 37 39 42 40 38 37 37 34 33 33 33 35 35 33 32 30 29 28 26 25 26 23 nan 21 22 21 22 18 20 19 14 14 14 16 16 15 15 15 17 15 14 14 11 9 nan nan nan nan 9 10 11 12 10 10 nan nan nan nan nan nan nan 17 20 21 20
nan nan 24 24 24 25 nan nan nan 24 28 33 36 36 35 35 36 36 36 39 40 43 44 43 42 40 39 38 36 34 35 35 34 34 33 32 31 29 29 30 29 25 nan 22 22 22 23 25 22 22 22 15 16 18 17 16 14 15 15 15 14 14 13 12 11 10 10 nan nan nan 9 10 10 10 9 nan nan nan nan nan nan nan 18 18 18
nan nan nan nan nan 23 nan nan nan nan 24 29 32 37 34 33 34 34 36 39 39 41 44 45 45 43 42 40 38 36 35 35 36 37 36 36 33 31 32 33 32 32 30 28 25 24 26 26 26 24 22 18 17 19 19 17 16 16 14 13 12 12 15 14 12 11 11 10 nan nan nan nan nan 7 7 nan nan nan nan nan nan nan nan nan 15
nan nan nan nan nan nan nan nan nan nan nan nan 31 38 36 32 31 29 31 35 38 39 43 46 45 45 43 42 41 39 38 37 36 37 37 35 33 32 33 nan nan 33 33 nan nan nan nan 27 27 25 23 21 20 19 19 19 18 17 15 14 12 14 16 15 12 11 11 11 10 10 nan nan nan nan nan nan nan nan nan nan nan nan nan nan nan
nan nan nan nan nan nan nan nan nan nan nan nan 34 38 39 34 28 28 29 31 34 33 36 39 44 46 45 44 43 42 41 40 37 36 37 36 35 35 35 nan nan nan nan nan nan 26 27 26 26 27 26 26 24 21 19 19 20 17 15 15 17 17 17 17 17 13 11 12 11 11 10 nan nan nan nan nan nan nan nan nan nan nan nan nan nan
nan nan nan nan nan nan nan nan nan nan nan nan nan nan nan 41 33 31 33 35 33 31 33 35 38 43 45 47 46 45 45 44 40 36 35 35 35 36 35 37 36 nan 34 33 30 30 27 29 28 28 27 31 31 27 24 22 21 22 19 18 20 20 19 19 19 17 14 12 13 12 12 nan nan nan nan nan nan nan nan nan nan nan nan nan nan
nan nan nan nan nan nan nan nan nan nan nan nan nan nan nan nan nan 36 34 34 33 31 32 34 38 41 44 48 49 48 48 47 44 40 38 37 39 40 38 38 38 37 37 34 32 27 28 29 31 30 31 32 31 29 28 26 25 26 23 21 20 21 22 22 20 19 18 16 14 14 14 14 14 13 nan nan nan nan nan nan nan nan nan nan nan
nan nan nan nan nan nan nan nan nan nan nan nan nan nan nan nan nan nan nan 31 29 31 30 33 38 39 41 47 49 49 49 48 46 44 41 40 41 42 41 39 39 38 38 36 30 29 31 31 33 30 31 32 30 28 27 29 30 28 27 25 25 23 22 23 22 20 20 19 16 14 14 14 14 14 14 13 nan nan nan nan nan nan nan nan nan
nan nan nan nan nan nan nan nan nan nan nan nan nan nan nan nan nan nan nan nan nan nan 28 31 36 nan 39 44 47 48 nan nan 46 45 43 43 43 45 43 41 39 39 40 36 32 31 31 30 31 32 32 31 29 28 28 30 31 33 31 29 27 24 23 24 25 24 24 24 20 16 14 13 13 13 12 12 13 13 nan nan nan nan nan nan nan
nan nan nan nan nan nan nan nan nan nan nan nan nan nan nan nan nan nan nan nan nan nan nan 28 34 38 39 43 46 47 47 nan 44 45 44 44 45 45 45 44 41 40 38 35 34 34 34 33 34 35 37 33 32 32 32 34 33 33 33 32 32 30 28 26 25 26 27 28 27 24 20 18 15 13 13 13 12 12 13 14 15 16 17 17 nan
nan nan nan nan nan nan nan nan nan nan nan nan nan nan nan nan nan nan nan nan nan nan nan nan 32 39 41 42 44 45 45 47 46 44 44 44 43 41 39 39 39 41 41 39 37 36 37 37 37 38 39 39 35 nan nan nan 32 33 33 34 34 34 33 30 27 28 29 29 29 28 27 26 22 21 18 15 13 12 12 13 13 13 15 16 17
nan nan nan nan nan nan nan nan nan nan nan nan nan nan nan nan nan nan nan nan nan nan nan nan nan 35 39 41 41 42 44 46 47 45 47 47 46 43 nan 40 40 42 43 43 41 40 41 40 38 38 41 41 40 37 37 36 35 35 35 nan 35 nan nan 34 31 30 31 32 31 32 31 30 26 23 19 17 15 15 14 15 13 13 13 14 14
nan nan nan nan nan nan nan nan nan nan nan nan nan nan nan nan nan nan nan nan nan nan nan nan nan 36 38 41 42 42 43 43 45 45 46 50 49 46 44 44 43 44 44 44 43 43 43 42 40 41 41 41 39 39 38 38 37 35 36 37 36 36 nan 33 31 31 32 33 33 33 32 34 32 30 29 26 23 22 19 17 19 17 17 17 15
nan nan nan nan nan nan nan nan nan nan nan nan nan nan nan nan nan nan nan nan nan nan nan nan nan nan nan nan nan 38 38 39 41 43 47 49 49 49 48 46 47 48 46 44 44 44 44 44 43 43 41 40 39 38 38 38 39 39 38 37 36 35 36 32 28 28 32 34 34 32 31 36 34 30 33 29 29 32 28 29 27 27 24 21 19
nan nan nan nan nan nan nan nan nan nan nan nan nan nan nan nan nan nan nan nan nan nan nan nan nan nan nan nan nan nan 39 39 43 44 46 49 49 51 52 52 51 47 43 41 41 44 44 45 46 46 43 40 39 39 40 39 40 39 38 38 37 38 36 34 31 31 35 37 37 37 34 39 37 29 30 30 31 33 31 28 25 25 22 22 22
nan nan nan nan nan nan nan nan nan nan nan nan nan nan nan nan nan nan nan nan nan nan nan nan nan nan nan nan nan nan nan nan 44 44 43 44 47 49 53 54 51 47 43 40 40 40 42 42 42 43 43 40 41 41 41 42 40 39 39 39 37 37 36 36 36 37 36 39 38 38 33 40 39 33 29 29 33 34 32 27 25 25 24 24 24
nan nan nan nan nan nan nan nan nan nan nan nan nan nan nan nan nan nan nan nan nan nan nan nan nan nan nan nan nan nan nan nan nan nan nan nan 49 53 51 nan nan nan nan nan nan nan nan nan nan nan nan nan nan nan nan nan 41 41 41 41 39 37 37 nan nan nan 36 39 40 38 nan 36 nan 39 33 30 35 37 35 31 27 27 27 26 27
nan nan nan nan nan nan nan nan nan nan nan nan nan nan nan nan nan nan nan nan nan nan nan nan nan nan nan nan nan nan nan nan nan nan nan nan nan nan nan nan nan nan nan nan nan nan nan nan nan nan nan nan nan nan nan nan nan nan nan nan 39 39 39 nan nan nan 37 40 39 37 nan nan nan nan nan nan nan 38 35 31 29 28 27 26 26
nan nan nan nan nan nan nan nan nan nan nan nan nan nan nan nan nan nan nan nan nan nan nan nan nan nan nan nan nan nan nan nan nan nan nan nan nan nan nan nan nan nan nan nan nan nan nan nan nan nan nan nan nan nan nan nan nan nan nan nan nan nan nan 42 nan nan nan nan nan nan nan nan nan nan nan nan nan nan 35 33 29 27 27 26 25
nan nan nan nan nan nan nan nan nan nan nan nan nan nan nan nan nan nan nan nan nan nan nan nan nan nan nan nan nan nan nan nan nan nan nan nan nan nan nan nan nan nan nan nan nan nan nan nan nan nan nan nan nan nan nan nan nan nan nan nan nan nan nan nan nan nan nan nan nan nan nan nan nan nan nan nan 40 37 36 37 34 32 31 29 27
nan nan nan nan nan nan nan nan nan nan nan nan nan nan nan nan nan nan nan nan nan nan nan nan nan nan nan nan nan nan nan nan nan nan nan nan nan nan nan nan nan nan nan nan nan nan nan nan nan nan nan nan nan nan nan nan nan nan nan nan nan nan nan nan nan nan nan nan nan nan nan nan 39 43 nan nan nan nan nan 37 38 39 37 34 34
nan nan nan nan nan nan nan nan nan nan nan nan nan nan nan nan nan nan nan nan nan nan nan nan nan nan nan nan nan nan nan nan nan nan nan nan nan nan nan nan nan nan nan nan nan nan nan nan nan nan nan nan nan nan nan nan nan nan nan nan nan nan nan nan nan nan nan nan nan nan 44 39 37 nan nan nan nan nan nan nan nan nan nan nan nan
nan nan nan nan nan nan nan nan nan nan nan nan nan nan nan nan nan nan nan nan nan nan nan nan nan nan nan nan nan nan nan nan nan nan nan nan nan nan nan nan nan nan nan nan nan nan nan nan nan nan nan nan nan nan nan nan nan nan nan nan nan nan nan nan nan nan nan nan nan nan nan nan nan nan nan nan nan nan nan nan nan nan nan nan nan
Wind_Direction
238 235 231 240 237 236 243 241 231 227 233 236 236 229 223 223 219 219 225 226 240 250 255 260 256 243 245 251 260 nan nan 232 209 187 185 179 176 164 341 22 34 34 16 14 24 26 27 30 29 29 43 47 55 49 46 53 57 65 64 67 67 61 55 49 44 42 36 25 23 20 12 13 14 16 nan nan nan nan nan nan nan nan nan nan nan
230 237 235 236 237 233 234 234 228 222 229 234 234 231 222 219 218 220 222 227 235 225 219 245 248 231 230 249 256 nan nan nan 205 nan 185 176 169 155 26 35 40 50 36 30 34 35 34 37 33 32 43 38 54 58 57 60 64 69 70 71 71 68 62 54 47 40 33 27 23 19 11 11 12 12 nan nan nan nan nan nan nan nan nan nan nan
236 237 236 233 232 229 230 229 219 216 224 228 231 232 223 221 223 222 219 229 243 251 234 241 247 242 232 241 255 nan nan nan nan nan 193 177 165 156 126 39 42 44 49 46 42 41 38 42 42 41 30 45 37 68 67 68 74 77 78 75 73 71 68 58 48 42 35 30 26 16 11 10 8 nan nan nan nan nan nan nan nan nan nan nan nan
232 230 237 233 227 228 222 225 222 211 220 226 228 230 227 224 225 223 223 229 241 240 230 240 242 247 252 246 253 265 nan nan nan nan 207 182 167 161 148 120 50 40 37 49 47 49 40 40 46 49 36 38 32 46 65 72 77 83 83 80 77 72 65 61 52 43 39 31 24 19 7 5 4 nan nan nan nan nan nan nan nan nan nan nan nan
221 227 236 239 230 229 222 222 218 213 217 228 231 230 231 229 224 224 227 227 234 240 239 249 249 241 247 243 240 248 nan nan nan 234 229 194 171 166 157 148 131 58 39 42 42 45 45 45 46 48 56 50 42 40 55 65 71 73 73 72 73 69 64 62 54 48 44 36 23 20 9 360 359 nan nan nan nan nan nan nan nan nan nan nan nan
226 227 228 237 233 228 225 222 218 213 219 229 234 232 230 231 232 229 228 229 229 235 235 237 243 240 244 244 234 217 213 nan nan 236 241 220 183 174 166 163 152 130 102 45 45 47 45 41 40 45 51 56 54 45 43 48 55 61 61 60 60 60 59 63 60 52 44 40 30 19 14 2 356 nan nan nan nan nan nan nan nan nan nan nan nan
227 232 228 231 229 223 221 220 222 215 215 224 232 229 229 232 235 233 227 227 225 224 234 237 236 235 239 239 232 226 207 nan nan 222 239 239 215 187 181 181 178 161 141 109 56 51 51 50 40 50 59 55 56 62 47 46 40 47 54 55 54 53 55 57 55 51 45 42 35 22 15 6 nan nan nan nan nan nan nan nan nan nan nan nan nan
230 230 229 235 235 227 219 217 224 223 216 224 228 230 227 228 227 233 231 226 226 221 228 230 232 232 233 240 233 225 221 221 nan nan nan 235 234 213 nan nan nan 189 182 154 122 97 50 59 47 41 48 59 54 45 51 42 43 42 52 54 55 55 56 54 54 47 41 34 28 23 16 7 nan nan nan nan nan nan nan nan nan nan nan nan nan
226 237 236 230 232 227 222 219 220 223 222 224 231 231 234 231 225 224 224 224 227 229 224 224 231 234 232 234 233 228 223 227 235 nan nan nan nan nan nan nan nan 208 211 nan 160 139 71 66 57 51 48 47 56 67 54 53 30 41 50 56 62 60 60 66 58 50 40 31 26 22 nan 12 nan nan nan nan nan nan nan nan nan nan nan nan nan
229 233 235 233 230 228 225 223 222 222 224 227 232 231 233 236 233 229 225 219 221 227 231 226 228 237 236 235 227 219 223 220 220 231 219 nan nan nan nan nan nan 213 nan nan 186 nan 161 133 49 65 70 60 65 65 54 45 39 29 38 51 60 66 63 64 69 55 42 35 28 24 22 nan nan nan nan nan nan nan nan nan nan nan nan nan nan
231 231 238 243 235 230 229 227 226 224 226 229 234 233 234 235 241 235 225 214 216 218 224 225 227 231 231 223 217 221 217 223 215 217 224 205 nan 213 nan nan nan nan nan nan nan nan nan 177 177 165 134 77 78 68 63 59 48 42 34 36 51 nan nan 59 55 54 46 43 37 31 22 19 nan nan nan nan nan nan nan nan nan nan nan nan nan
232 233 232 236 235 231 229 231 230 228 228 231 234 236 238 242 240 232 223 213 215 220 219 222 225 227 222 215 216 226 217 214 222 207 201 199 204 209 nan nan nan nan nan nan nan nan nan nan 203 187 170 139 89 95 80 68 58 39 43 27 41 nan nan nan 53 48 45 42 41 34 23 24 nan nan nan nan nan nan nan nan nan nan nan nan nan
233 234 236 234 234 233 235 235 229 223 224 230 234 235 234 241 238 217 216 215 212 219 217 222 232 222 215 216 218 221 217 206 213 214 196 187 195 208 211 201 nan nan nan nan nan nan nan nan nan nan nan 174 159 118 100 96 103 56 41 34 29 43 nan nan nan 59 49 43 39 36 22 23 24 nan nan nan nan nan nan nan nan nan nan nan nan
230 235 239 241 237 236 240 243 239 235 231 228 231 233 233 237 231 211 204 212 212 220 226 228 216 224 227 220 218 216 210 198 209 211 203 190 180 193 223 196 168 nan nan nan nan nan nan nan nan nan nan nan 179 169 162 152 133 97 66 50 38 29 nan nan nan nan nan nan 51 48 35 30 26 nan nan nan nan nan nan nan nan nan nan nan nan
232 235 241 244 242 239 240 243 241 235 234 234 234 233 233 236 227 220 213 205 209 217 226 217 230 226 223 227 224 216 202 197 200 203 204 193 178 186 223 206 153 164 nan 157 161 185 207 nan nan nan nan nan 190 181 178 174 161 134 94 75 70 50 37 nan nan nan nan nan 61 59 46 37 33 29 nan nan nan nan nan nan nan nan nan nan nan
232 236 243 245 245 243 241 244 240 233 229 239 239 235 229 229 225 223 224 220 212 214 219 218 223 243 225 224 224 214 208 198 207 201 201 190 173 185 213 199 165 186 186 163 158 191 216 222 nan nan nan nan 207 196 186 190 162 131 112 85 102 76 60 nan nan nan nan nan 66 64 57 41 39 35 31 nan nan nan nan nan nan nan nan nan nan
234 nan 246 251 250 245 244 242 240 240 230 229 241 240 231 229 230 226 225 226 222 218 219 221 216 216 235 232 225 208 204 217 218 190 202 194 170 188 205 187 182 200 199 179 184 190 226 232 221 nan nan nan 213 206 199 197 185 178 152 115 97 73 63 58 nan nan nan nan nan 64 62 49 39 40 36 nan nan nan nan nan nan nan nan nan nan
233 nan 245 255 256 250 246 243 238 239 237 236 238 239 233 228 228 230 225 224 231 227 225 222 218 215 215 233 228 214 220 219 225 196 200 193 190 193 194 182 183 193 199 207 206 200 211 243 238 225 221 nan 217 211 206 nan nan 199 193 169 106 56 54 53 50 nan nan nan nan nan 61 59 43 40 39 35 nan nan nan nan nan nan nan nan nan
238 242 248 256 259 252 248 244 242 239 237 234 238 240 236 232 228 229 229 228 229 230 231 229 221 214 217 228 217 194 225 235 218 216 213 198 196 194 183 187 186 190 193 202 217 215 208 229 255 239 214 208 211 210 208 209 nan nan 180 120 85 46 41 50 47 nan nan nan nan nan nan 57 57 42 40 38 29 nan nan nan nan nan nan nan nan
235 235 250 257 255 250 244 245 243 242 237 236 239 238 235 231 234 231 230 232 232 233 230 231 235 223 223 232 224 214 231 217 226 237 228 221 197 193 187 186 191 186 190 197 209 219 218 221 240 242 228 213 207 207 206 210 nan nan nan 65 54 47 39 45 44 43 nan nan nan nan nan nan 53 50 40 33 28 22 nan nan nan nan nan nan nan
229 231 248 257 251 244 238 239 244 243 242 234 232 241 242 240 237 233 231 229 229 228 229 229 227 229 230 231 231 225 229 220 225 227 227 225 208 211 197 196 198 192 196 201 198 206 215 224 236 247 240 231 218 208 209 213 nan nan nan 38 28 36 40 46 45 43 46 nan nan nan nan nan nan 49 41 35 23 15 10 nan nan nan nan nan nan
227 233 233 250 253 248 237 227 235 245 240 237 227 223 232 238 239 237 232 231 224 224 226 227 226 226 231 236 235 230 227 224 221 224 223 226 nan 227 216 217 207 198 212 208 202 201 205 217 231 237 241 240 233 220 213 211 nan nan nan nan 21 27 30 39 44 43 40 nan nan nan nan nan nan nan 41 34 26 10 10 6 3 nan nan nan nan
234 235 239 235 240 247 238 231 229 233 238 243 239 234 224 225 232 233 231 229 225 225 220 223 228 229 232 236 236 237 239 232 225 221 228 228 226 230 227 222 217 211 206 216 211 204 206 214 225 234 240 245 247 240 227 212 nan nan nan nan nan 12 19 26 35 40 37 27 nan nan nan nan nan nan nan 32 26 17 5 4 355 355 nan nan nan
241 237 235 235 238 238 233 230 233 235 234 237 239 234 232 225 227 228 229 227 225 225 222 226 231 231 234 235 231 230 232 237 231 228 228 224 226 232 241 229 214 210 210 219 213 209 207 210 219 231 235 239 246 248 244 237 222 330 nan nan nan nan 12 13 20 30 31 28 nan nan nan nan nan nan nan nan 29 24 15 4 356 355 nan nan nan
242 237 233 232 237 239 235 nan 231 238 237 238 236 234 230 230 230 229 228 230 228 226 225 227 233 234 236 235 232 230 233 234 236 233 230 234 230 nan 223 231 231 221 212 221 216 210 211 211 221 225 233 236 238 240 241 243 239 255 283 232 nan nan nan 360 7 14 25 nan nan nan nan nan nan nan nan nan nan 24 10 1 358 356 354 nan nan
235 235 231 232 234 239 240 nan 236 234 233 235 235 232 231 227 225 220 227 228 226 225 225 227 229 231 235 237 233 231 232 234 236 237 237 238 234 230 228 229 230 228 219 219 215 219 211 215 218 224 228 233 237 240 239 236 236 254 282 246 262 328 nan nan 349 1 13 20 nan nan nan nan nan nan nan nan nan nan nan 356 354 3 6 nan nan
232 235 234 234 236 238 nan 240 239 240 235 231 233 231 233 234 232 226 223 227 228 226 224 228 229 231 234 237 235 231 232 235 237 236 237 239 242 239 236 232 228 226 221 219 217 218 217 215 227 227 229 234 239 243 244 238 236 253 263 245 238 293 nan nan nan nan 352 7 8 5 nan nan 8 nan nan nan nan nan nan nan 355 2 13 nan nan
nan 235 235 238 237 238 241 245 243 235 232 228 224 227 230 234 232 227 224 227 228 227 225 227 227 230 233 235 237 233 232 234 234 235 237 238 241 239 236 233 232 221 223 218 220 214 218 218 220 227 230 236 240 244 249 250 240 251 260 240 240 246 294 nan nan nan nan 347 356 357 1 355 357 360 nan nan nan nan nan nan 8 4 13 19 21
nan 234 235 235 238 239 nan nan 243 240 236 231 224 225 228 233 230 229 228 227 228 224 224 225 225 228 229 235 238 236 232 232 232 234 235 235 239 241 239 237 234 230 nan 224 223 225 215 231 227 221 234 237 244 246 250 249 249 254 247 246 247 247 270 302 nan nan nan nan 328 346 359 6 6 3 nan nan nan nan nan nan nan 11 13 20 20
nan nan 232 231 234 237 nan nan nan 240 235 230 228 228 230 231 231 228 228 230 230 227 224 223 225 227 227 229 232 233 233 235 233 233 234 235 238 240 238 234 232 232 nan 230 223 232 226 226 232 225 226 232 243 248 250 250 260 268 253 253 253 254 277 298 304 308 312 nan nan nan 345 -0 11 14 1 nan nan nan nan nan nan nan 19 19 16
nan nan nan nan nan 234 nan nan nan nan 240 234 232 230 232 232 228 228 229 228 229 227 224 223 224 226 226 227 228 228 229 233 234 234 233 234 235 237 238 239 238 238 232 228 229 230 236 231 231 232 235 234 243 251 254 253 259 272 261 257 257 268 281 280 303 309 311 315 nan nan nan nan nan 359 2 nan nan nan nan nan nan nan nan nan 8
nan nan nan nan nan nan nan nan nan nan nan nan 232 232 231 235 232 232 232 229 226 227 222 221 225 227 228 228 229 228 226 227 230 233 233 233 235 235 236 nan nan 240 240 nan nan nan nan 234 229 224 230 234 240 250 254 255 260 281 263 263 261 264 264 258 283 304 310 315 320 323 nan nan nan nan nan nan nan nan nan nan nan nan nan nan nan
nan nan nan nan nan nan nan nan nan nan nan nan 242 238 232 232 232 232 235 229 231 230 227 219 221 225 226 226 227 227 227 229 230 229 232 237 239 239 238 nan nan nan nan nan nan 226 224 232 235 233 230 235 234 239 245 251 254 260 267 263 261 263 264 263 264 286 308 314 317 318 317 nan nan nan nan nan nan nan nan nan nan nan nan nan nan
nan nan nan nan nan nan nan nan nan nan nan nan nan nan nan 234 232 237 228 220 230 235 229 224 225 227 227 227 228 229 229 231 231 230 231 237 242 244 244 244 243 nan 242 239 232 231 222 229 233 238 238 238 238 234 242 241 241 247 255 259 262 269 270 267 267 269 301 308 309 312 313 nan nan nan nan nan nan nan nan nan nan nan nan nan nan
nan nan nan nan nan nan nan nan nan nan nan nan nan nan nan nan nan 237 225 212 216 227 229 226 225 226 229 229 230 230 229 231 232 233 235 237 239 243 245 243 240 239 241 242 240 234 231 227 235 243 247 239 239 239 242 247 251 258 255 253 260 262 263 265 266 262 280 301 308 309 313 313 313 316 nan nan nan nan nan nan nan nan nan nan nan
nan nan nan nan nan nan nan nan nan nan nan nan nan nan nan nan nan nan nan 213 212 215 222 226 226 225 225 228 230 232 232 234 236 238 238 237 240 243 246 245 242 240 241 240 238 237 237 233 234 243 241 240 235 241 244 249 253 258 261 258 256 258 265 270 271 266 267 283 293 302 305 309 312 315 318 319 nan nan nan nan nan nan nan nan nan
nan nan nan nan nan nan nan nan nan nan nan nan nan nan nan nan nan nan nan nan nan nan 216 223 226 nan 224 225 228 231 nan nan 235 238 238 236 236 240 243 245 242 239 240 240 237 235 236 236 234 235 235 234 239 242 244 247 248 254 259 264 263 263 264 267 269 270 270 283 291 297 297 299 300 303 306 308 311 313 nan nan nan nan nan nan nan
nan nan nan nan nan nan nan nan nan nan nan nan nan nan nan nan nan nan nan nan nan nan nan 224 221 222 223 225 226 228 232 nan 233 237 238 237 236 238 242 243 242 240 240 239 236 234 234 235 237 231 234 233 238 244 243 245 247 248 249 254 260 263 264 262 265 269 272 273 272 273 275 277 283 293 292 291 298 305 307 307 309 311 310 310 nan
nan nan nan nan nan nan nan nan nan nan nan nan nan nan nan nan nan nan nan nan nan nan nan nan 222 217 218 223 227 228 231 233 232 236 240 237 236 236 237 241 243 243 242 240 240 238 237 236 236 238 235 236 243 nan nan nan 246 250 252 249 250 254 259 262 262 265 270 274 275 283 282 282 284 283 290 294 290 287 284 287 294 303 305 307 307
nan nan nan nan nan nan nan nan nan nan nan nan nan nan nan nan nan nan nan nan nan nan nan nan nan 217 215 218 225 229 230 232 236 234 241 239 233 230 nan 241 246 247 243 241 242 242 240 239 237 237 239 240 241 245 246 245 244 244 249 nan 251 nan nan 255 262 266 265 270 273 274 275 276 276 279 280 281 287 291 292 286 288 287 290 293 297
nan nan nan nan nan nan nan nan nan nan nan nan nan nan nan nan nan nan nan nan nan nan nan nan nan 221 218 221 222 226 229 235 239 241 239 241 238 236 239 247 251 251 247 244 243 244 243 242 239 240 238 238 241 241 240 245 247 248 250 252 251 250 nan 247 248 256 265 269 268 269 272 278 278 278 276 272 273 280 282 294 281 286 285 281 283
nan nan nan nan nan nan nan nan nan nan nan nan nan nan nan nan nan nan nan nan nan nan nan nan nan nan nan nan nan 219 219 227 239 242 243 244 242 242 244 248 250 248 246 245 244 243 242 242 242 241 239 238 240 245 247 248 250 250 253 255 254 249 247 245 243 249 256 262 261 263 266 270 274 272 274 274 269 273 271 273 278 282 284 287 283
nan nan nan nan nan nan nan nan nan nan nan nan nan nan nan nan nan nan nan nan nan nan nan nan nan nan nan nan nan nan 223 224 230 233 237 239 237 236 240 245 246 244 245 248 247 244 242 242 241 241 239 238 241 247 250 250 253 257 259 264 261 253 250 251 249 247 256 260 256 256 255 261 267 265 266 268 268 270 271 275 282 287 292 287 283
nan nan nan nan nan nan nan nan nan nan nan nan nan nan nan nan nan nan nan nan nan nan nan nan nan nan nan nan nan nan nan nan 229 230 232 235 236 235 235 233 231 232 236 245 245 243 244 244 240 235 235 238 243 248 250 253 255 258 262 265 261 256 255 258 260 261 260 261 260 255 253 260 265 264 260 265 267 268 272 276 276 281 287 291 289
nan nan nan nan nan nan nan nan nan nan nan nan nan nan nan nan nan nan nan nan nan nan nan nan nan nan nan nan nan nan nan nan nan nan nan nan 233 231 230 nan nan nan nan nan nan nan nan nan nan nan nan nan nan nan nan nan 250 252 256 257 256 258 261 nan nan nan 261 266 263 258 nan 259 nan 267 267 267 270 270 272 280 287 286 288 292 291
nan nan nan nan nan nan nan nan nan nan nan nan nan nan nan nan nan nan nan nan nan nan nan nan nan nan nan nan nan nan nan nan nan nan nan nan nan nan nan nan nan nan nan nan nan nan nan nan nan nan nan nan nan nan nan nan nan nan nan nan 256 257 261 nan nan nan 271 270 272 264 nan nan nan nan nan nan nan 272 274 277 285 288 289 290 290
nan nan nan nan nan nan nan nan nan nan nan nan nan nan nan nan nan nan nan nan nan nan nan nan nan nan nan nan nan nan nan nan nan nan nan nan nan nan nan nan nan nan nan nan nan nan nan nan nan nan nan nan nan nan nan nan nan nan nan nan nan nan nan 266 nan nan nan nan nan nan nan nan nan nan nan nan nan nan 272 273 278 285 287 283 280
nan nan nan nan nan nan nan nan nan nan nan nan nan nan nan nan nan nan nan nan nan nan nan nan nan nan nan nan nan nan nan nan nan nan nan nan nan nan nan nan nan nan nan nan nan nan nan nan nan nan nan nan nan nan nan nan nan nan nan nan nan nan nan nan nan nan nan nan nan nan nan nan nan nan nan nan 265 266 269 271 274 277 279 279 276
nan nan nan nan nan nan nan nan nan nan nan nan nan nan nan nan nan nan nan nan nan nan nan nan nan nan nan nan nan nan nan nan nan nan nan nan nan nan nan nan nan nan nan nan nan nan nan nan nan nan nan nan nan nan nan nan nan nan nan nan nan nan nan nan nan nan nan nan nan nan nan nan 265 268 nan nan nan nan nan 267 269 272 274 272 272
nan nan nan nan nan nan nan nan nan nan nan nan nan nan nan nan nan nan nan nan nan nan nan nan nan nan nan nan nan nan nan nan nan nan nan nan nan nan nan nan nan nan nan nan nan nan nan nan nan nan nan nan nan nan nan nan nan nan nan nan nan nan nan nan nan nan nan nan nan nan 273 272 264 nan nan nan nan nan nan nan nan nan nan nan nan
nan nan nan nan nan nan nan nan nan nan nan nan nan nan nan nan nan nan nan nan nan nan nan nan nan nan nan nan nan nan nan nan nan nan nan nan nan nan nan nan nan nan nan nan nan nan nan nan nan nan nan nan nan nan nan nan nan nan nan nan nan nan nan nan nan nan nan nan nan nan nan nan nan nan nan nan nan nan nan nan nan nan nan nan nan